Torna al catalogo

SL-14 R/B

AttivoPO
NORAD 16144·ROCKET BODY·🇷🇺 Russia

Lanciato Oct 9, 1985 da Plesetsk Cosmodrome

Loading…

Prossimi Passaggi (prossime 24 ore)

TLE

AggiornatoSource: Space-Track

Epoca: Sep 14, 2026, 18:05 UTC

1 16144U 85094G   26257.75367552  .00000017  00000-0  44653-4 0  9998
2 16144  82.6146 357.3851 0035176 255.0864 272.1995 12.54894631874983

Traccia SL-14 R/B in tempo reale con AllMySat

Download on the App Store